Regional Weather Roundup
Issued by NWS Wakefield, VA

Home | Current Version | Previous Version | Text Only | Print | Product List | Glossary Off
Versions: 1 2 3 4 5 6 7 8 9 10 11 12 13 14 15 16 17 18 19 20 21 22 23 24 25 26 27 28 29 30 31 32 33 34 35 36 37 38 39 40 41 42 43 44 45 46 47 48 49 50

000
ASUS41 KAKQ 312110
RWRAKQ

REGIONAL WEATHER ROUNDUP
NATIONAL WEATHER SERVICE WAKEFIELD VA
400 PM EST SAT JAN 31 2015

Note: "fair" indicates few or no clouds below 12,000 feet with no
significant weather and/or obstructions to visibility. * = Denotes
station may not report precipitation (e.g., rain,snow,etc.),
thunder or fog.

VAZ042-051-052>054-056-312200-
NORTHERN VIRGINIA

CITY           SKY/WX    TMP DP  RH WIND       PRES   REMARKS
WASH NATIONAL  MOSUNNY   35   7  31 NW6       30.28F
DULLES         MOSUNNY   33   8  35 NW10      30.25F WCI  25
FORT BELVOIR   SUNNY     35   7  30 W9        30.27F
QUANTICO       SUNNY     36   7  29 SW6       30.28F
FREDERICKSBRG* SUNNY     39   4  23 CALM      30.26S
STAFFORD*      SUNNY     37  -1  19 CALM      30.30F
WARRENTON      SUNNY     38  13  36 CALM      30.24S
CULPEPER*      SUNNY     37   3  23 CALM      30.26R
MANASSAS*      SUNNY     36   9  32 NW6       30.27S
LEESBURG*      SUNNY     32  14  47 NW7       30.26S
WINCHESTER     SUNNY     36   3  25 W10       30.22S
FRONT ROYAL*   FAIR      36   7  30 N3        30.21S
LURAY*         FAIR      41   7  24 SW3       30.21S
$$

VAZ048-049-060>072-079>083-312200-
CENTRAL AND SOUTH CENTRAL VIRGINIA

CITY           SKY/WX    TMP DP  RH WIND       PRES   REMARKS
RICHMOND       PTSUNNY   42   4  20 W9        30.27S
CHESTERFIELD*  FAIR      43   5  21 W5        30.27F
PETERSBURG*    SUNNY     44  -1  15 W9G16     30.27S
HANOVER        SUNNY     40   5  23 W10       30.27F
TAPPAHANNOCK*  SUNNY     38  -4  17 W9        30.27F
QUINTON*       FAIR      39   6  25 W6        30.27S
CHARLOTTSVILLE SUNNY     41   2  19 SE7       30.22S
GORDONSVILLE*  FAIR      40   1  19 S5        30.23R
ORANGE*        SUNNY     41   3  20 CALM      30.25S
LOUISA*        SUNNY     43   3  19 W5        30.22S
BUMPASS*       FAIR      40   4  23 CALM      30.24S
FARMVILLE*     SUNNY     48   3  15 SW6       30.23F
CREWE*         FAIR      43   0  16 SW5       30.26S
FORT PICKETT*  FAIR      42   3  19 SW9       30.25F
CHASE CITY*    FAIR      46   9  21 W6        30.26F
CLARKSVILLE*   FAIR      45   9  23 SW8       30.27R
SOUTH HILL*    SUNNY     43   6  21 SW6       30.33S
LAWRENCEVILLE* FAIR      42   5  21 CALM      30.26S
EMPORIA*       MOSUNNY   41   5  22 SW7       30.29S
$$

VAZ088>098-312200-
SOUTHEAST VIRGINIA

CITY           SKY/WX    TMP DP  RH WIND       PRES   REMARKS
NORFOLK        SUNNY     38   4  24 W8        30.27S
VIRGINIA BEACH MOSUNNY   39   6  25 NW14      30.27S
NORFOLK NAVAL  MOSUNNY   42   6  22 NW13      30.28F
WEST POINT*    SUNNY     40  -2  17 W8        30.29F
SALUDA*        FAIR      35   7  30 NW7       30.26F
NEWPORT NEWS   SUNNY     40   6  24 NW10      30.28S
LANGLEY AFB    SUNNY     38   7  28 W12       30.27S
FORT EUSTIS    SUNNY     39  14  36 N13       30.26S
WILLIAMSBURG*    N/A     43  10  26 NW8       30.28S
HR EXEC AP*    FAIR      41   9  26 NW5       30.30S
FRANKLIN*      SUNNY     41   6  22 W5        30.28F
WAKEFIELD      SUNNY     43   4  19 W8        30.27F
$$

VAZ020-022-025-037-045-312200-
WEST CENTRAL AND SOUTHWEST VIRGINIA

CITY           SKY/WX    TMP DP  RH WIND       PRES   REMARKS
STAUNTON*      SUNNY     40   2  21 CALM      30.21S
WAYNESBORO*    FAIR      40   2  20 SW3       30.18R
HOT SPRINGS VA SUNNY     32  -6  19 W18G26    30.09R WCI  20
LYNCHBURG      SUNNY     44   3  18 S9G16     30.23F
DANVILLE       SUNNY     47   7  19 W9        30.27S
SOUTH BOSTON*  FAIR      46   3  17 SW8       30.27S
MARTINSVILLE   SUNNY     49   0  13 NW5       30.27S
ROANOKE        MOSUNNY   44   2  17 SW15      30.25S
BLACKSBURG     SUNNY     39   3  21 W8        30.25S
DUBLIN*        SUNNY     42   1  17 W7        30.24S
MARION*        MOSUNNY   39  10  30 SW13      30.25S
HILLSVILLE*    SUNNY     40   2  21 W7        30.22S
RICHLANDS*     FAIR      36   8  31 S6        30.23F
WISE*          PTSUNNY   41   7  24 SW8       30.24S
ABINGDON*      MOSUNNY   42  10  26 W7        30.27S
$$

MDZ021>025-VAZ099-100-312200-
SOUTHERN MARYLAND AND THE DELMARVA PENINSULA

CITY           SKY/WX    TMP DP  RH WIND       PRES   REMARKS
PATUXENT RIVER MOSUNNY   33   7  33 NW10      30.26F WCI  25
BAY BRIDGE APT   N/A     32   9  37 W10G16    30.26F WCI  24
LEONARDTOWN    SUNNY     34   5  29 W9        30.27F
DOVER          SUNNY     30   6  37 W16G24    30.22S WCI  18
GEORGETOWN     SUNNY     30   5  34 W17G25    30.23R WCI  18
EASTON         SUNNY     32   9  37 NW17G35   30.29S WCI  21
CAMBRIDGE      SUNNY     32   9  37 NW10G18   30.25F WCI  24
SALISBURY      SUNNY     33   6  32 NW17G24   30.23F WCI  22
OCEAN CITY     SUNNY     31   6  35 NW15G21   30.22R WCI  20
WALLOPS ISLAND SUNNY     31   7  36 NW17G24   30.24F WCI  19
ACCOMACK*      SUNNY     32   9  37 NW17G29   30.25S WCI  21
$$

NCZ012>017-030>032-312200-
NORTH CENTRAL AND EASTERN NORTH CAROLINA

CITY           SKY/WX    TMP DP  RH WIND       PRES   REMARKS
ROANOKE RAPIDS FAIR      45   9  23 W6        30.28F
RALEIGH        MOSUNNY   47   6  18 W5        30.28F
ELIZABETH CITY SUNNY     40   9  28 NW12      30.29S
AHOSKIE*       SUNNY     42   7  23 CALM      30.28F
EDENTON*       SUNNY     43  10  26 NW8       30.29S
CURRITUCK*     SUNNY     40   2  20 NW8       30.28S
KILL DEVIL HLS SUNNY     38  10  32 W7        30.27S
MANTEO         SUNNY     37  10  32 NW8       30.29S
CAPE HATTERAS  SUNNY     39  14  36 NW9       30.30S
TARBORO*       FAIR      46   7  20 W8        30.30F
GOLDSBORO      SUNNY     27  16  63 NW2       30.32R
WASHINGTON     SUNNY     43   8  23 NW7       30.30F
GREENVILLE     SUNNY     45   9  23 NW5       30.30F
NEW BERN       SUNNY     47   9  21 W6        30.32S
WILMINGTON     SUNNY     50   9  19 NW6       30.32S
$$

VAZ048-312200-
ELSEWHERE

CITY           SKY/WX    TMP DP  RH WIND       PRES   REMARKS
HARRISBURG PA  MOSUNNY   26   8  46 NW16      30.23S WCI  14
BALTIMORE      MOSUNNY   31   5  33 NW14      30.25F WCI  21
ANNAPOLIS      SUNNY     31   7  36 NW7       30.26F
ANDREWS AFB    SUNNY     31   7  36 NW10      30.25F WCI  22
PHILADELPHIA   SUNNY     29   4  34 NW14G24   30.20S WCI  18
HENDERSON NC   SUNNY     44   1  16 CALM      30.27F
GREENSBORO     PTSUNNY   48   1  14 SW9       30.26F
ROCKY MOUNT    SUNNY     46   9  22 W8        30.29F
$$

VAZ100-312200-
MARINE

STATION/POSITION TIME  TEMP    WIND        PRES    WAVE   SWELL
                       AIR SEA DIR/SP/G            HT/PER HT/PER
                 (UTC) (F)     (DEG/KT/KT) (MB)    (FT/S) (FT/S)
BRANDYWINE LGT   2100   27 35  310/ 24/ 26 1022.8F
CAPE MAY NJ      2100   28 32              1022.5S
LEWES DE         2100   29 32  310/ 23/ 29 1022.8R
15NM E FENWICK I 2100   30 39              1022.2R   5/ 6
OCEAN-CITY-INLET 2100   31 35  320/ 14/ 18 1022.7S
WACHAPREAGUE VA  2100   33 33  300/  6/ 12 1024.3S
THOMAS POINT MD  2100   30 35  300/ 14/ 16 1025.6F
GOOSES REEF MD   2100   31     VRB 12/ 16  1024.0F
COVE POINT MD    2100   30     330/ 14/ 19 1024.6F
SOLOMONS ISLAND  2100      36                N/A
BISHOPS HEAD MD  2100   31 32  310/ 15/ 18 1024.3S
PINEY POINT MD   2100          330/ 13/ 15   N/A
POTOMAC MD       2100   32     320/ 16/ 17 1024.1S
CAMBRIDGE MD     2100   30 33  300/ 12/ 15 1024.5F
LEWISETTA VA     2100   32 34  330/  8/ 10 1025.1R
RAPPAHANNOCK LGT 2100          310/ 15/ 16 1025.3R
STINGRAY PT      2100   35     300/ 12/ 14 1025.3S
YORK RVR RNG VA  2100   37     330/ 12/ 13 1024.5R
YORKTOWN VA      2100   36 38  320/  7/  8 1024.8F
JAMESTOWN VA     2100   37     330/ 10/ 12   N/A
DOMINION TERM VA 2100   37     330/ 13/ 17 1025.1R
KIPTOPEKE VA     2100      42  340/ 13/ 15   N/A
CHES BAY BRIDGE  2100   36 38  280/ 12/ 13 1024.7R
CAPE HENRY VA    2100   35     310/ 10/ 12 1023.7R
CHESAPEAKE LGHT  2000   34     310/ 19/ 20 1025.8S
WILLOUBY STN VA  2100   37     290/ 15/ 17 1025.5S
S CRANEY ISL VA  2100          330/ 10/ 14 1025.0R
CAPE HENRY BUOY  2100      42                N/A     4/ 4
1ST LANDING BUOY 2100   36     300/ 14/ 16 1024.5F
CAPE CHARLES BUO 2100      40                N/A     3/ 4   2/ 8
OFFSHORE WE BUOY 2100      43                N/A     6/ 5   2/18
64NM E OF VA BCH 2100   35 48  310/ 23/ 29 1023.0S   9/ 8
DUCK PIER NC     2100   37 40  330/  9/ 11 1024.3S
44100 DUCK FRF   2100      43                N/A     6/ 6   2/11
44056 DUCK FRF   2100      41                N/A     5/ 8   2/11
OREGON INLET NC  2100   36 40  300/ 13/ 17 1025.3S
HATTERAS NC      2100   37 40  320/ 12/ 14 1026.3F


USA.gov is the U.S. government's official web portal to all federal, state and local government web resources and services.